FENGYUN 1C DEB, 36269

Orbit data source: Space-Track

FENGYUN 1C DEB, 36269 is space debris in SSO originally from a launch on Mon, 10 May 1999 UTC launched from the Taiyaun Space Center, China (TSC). Fengyun 1C debris stems from the Chinese weather satellite Fengyun-1C, which was intentionally destroyed by a Chinese anti-satellite missile in 2007. This event dramatically increased the amount of space debris, with thousands of trackable fragments posing hazards to satellites and human spaceflight. The Fengyun 1C debris cloud has become a focal point in discussions about space sustainability and the need for international regulations to prevent the creation of new debris.

Loading next visibility...
Identifier
36269, 1999-025DWW
Orbit
SSO
Country
Flag of CNCN / PRC
Related business
Manufacturer
Unknown
Mission
Spacecraft
Bus & Motor
Unknown
Mass
Unknown
Launch date (UTC)
1999-05-10 (27 years ago)
Launch vehicle
Unknown
Launch site
Taiyaun Space Center, China (TSC)
Object type
Payload
Rocket body
Debris
Shape & HBR
Unknown shape, 0.1 m
Radar Cross Section
Small (<0.1 m²)

Expand to show TLE details & history
Last TLE update: 6 days ago

TLE from 6 days ago
0 FENGYUN 1C DEB
1 36269U 99025DWW 26202.16540017  .00001257  00000-0  39671-3 0  9991
2 36269  99.1290 158.8851 0233023   4.4811 355.8381 14.27896237908611
Epoch: 2026-07-21T03:58Z
TLE epoch observation values (Epoch: 2026-07-21T03:58:10.574Z)
Latitude
-0.00007°
Longitude
160.40205°
Altitude
634.875 km
Speed
7.628 km/s
True Right ascension
10h 35m 32s
True Declination
0° 00' 00"
Sunlit
Object was in daylight at epoch
Visualization orbit readout
Latitude
Unknown
Longitude
Unknown
Altitude
Unknown
Speed
Unknown
Apparent Right ascension
Unknown
Apparent Declination
Unknown
Sunlit
N/A
Visualization observer readout
Local Sidereal Time
01:11:30
Azimuth
Unknown
Elevation
Unknown
Doppler factor
Unknown
Orbital elements
Apogee altitude
963.11 km
Perigee altitude
628.765 km
Semi-major axis
7,174.075 km
Eccentricity
0.0233
Inclination
99.129°
RAAN
158.8851°
Arg. of periapsis
4.4811°
True anomaly
355.63852°
Mean anomaly
355.8381°
Eccentric anomaly
355.7389°
Mean motion
3.57186 °/min
Orbital period
100.79 mins
BSTAR
0.00039671
Loading maneuver chart data...
Computing Atmospheric mass density...
Loading historical data...
Loading historical data...
Loading historical data...
Loading historical data...
Loading historical data...
Loading historical data...
Loading historical data...

Documentation

Showing up to 5 results
|